Regional Weather Roundup
Issued by NWS Midland/Odessa, TX

Skip options and go directly to product.
Home | Oldest Version | Previous Version | Current Version | All | Text Only | Save Text | Print | Product List | Glossary On

Skip product version selection by date and time.   
517
ASUS44 KMAF 070601
RWRMAF
MIDLAND AREA WEATHER ROUNDUP
NATIONAL WEATHER SERVICE MIDLAND TX
1200 AM CST SUN FEB 07 2016

...IN SOUTHWEST TEXAS AND SOUTHEAST NEW MEXICO...

CITY           SKY/WX    TMP DP  RH WIND       PRES   REMARKS
ALPINE         CLOUDY    42   7  24 SW10      30.37S WCI  35
ANDREWS        FAIR      41  12  30 SW12      30.25S WCI  35
ARTESIA        CLOUDY    39   9  28 W7        30.23F WCI  34
BIG SPRING     CLOUDY    37  15  40 SE9       30.29R WCI  30
CARLSBAD       CLEAR     49   6  17 W15       30.22S
DRYDEN           N/A     39  12  33 CALM      30.29F
FORT STOCKTON  CLOUDY    41  17  38 SW14      30.26F WCI  33
GUAD PASS      CLOUDY    38   3  23 SW21      30.30S WCI  28
HOBBS          CLOUDY    32   7  34 SW8       30.25S WCI  25
MARFA          CLOUDY    21   4  47 N3        30.35F
MIDLAND AIRPK  CLOUDY    46  13  26 S8        30.26F
MIDLAND INTL   CLOUDY    43  14  31 S8        30.25F WCI  38
ODESSA         CLOUDY    41  14  33 SW7       30.25F WCI  36
PECOS          CLOUDY    34  11  39 CALM      30.26S
PRESIDIO       FAIR      44   9  24 N3        30.32S
SEMINOLE       CLOUDY    34  12  40 SW5       30.25S WCI  29
SNYDER           N/A     38  19  45 S8        30.27S WCI  32
WINK           CLOUDY    39  14  36 CALM      30.24F
$$
...OTHER STATIONS IN TEXAS...

CITY           SKY/WX    TMP DP  RH WIND       PRES   REMARKS
ABILENE        CLEAR     34  19  54 S9        30.30F WCI  27
AMARILLO       CLEAR     34  13  41 S12       30.15F WCI  25
AUSTIN         CLEAR     34  31  88 CALM      30.38F
BROWNSVILLE    CLEAR     44  37  76 N3        30.37F
CORPUS CHRISTI CLEAR     49  32  52 NE7       30.37F
DALLAS FTW     CLEAR     39  32  76 SW7       30.34R WCI  34
DEL RIO        PTCLDY    43  20  39 E6        30.33F WCI  39
EL PASO        MOCLDY    41   8  25 N3        30.31F
HOUSTON INT    CLEAR     43  36  76 CALM      30.37F
LUBBOCK        CLOUDY    38  13  35 S12       30.21F WCI  30
SAN ANGELO     CLOUDY    37  21  52 S6        30.30F WCI  32
SAN ANTONIO    PTCLDY    42  26  53 CALM      30.37S
WACO           CLEAR     31  29  92 W6        30.36F WCI  25
WICHITA FALLS  NOT AVBL
$$
...OTHER LOCATIONS IN NEW MEXICO...

CITY           SKY/WX    TMP DP  RH WIND       PRES   REMARKS
ALAMAGORDO     CLOUDY    32   5  32 S3        30.34S
ALBUQUERQUE    CLOUDY    39  13  34 N8        30.36S WCI  33
CANNON AFB     CLOUDY    34   9  35 W8        30.16F WCI  27
CLOVIS         CLOUDY    28   9  43 SW10      30.16F WCI  19
HOLLOMAN AFB   CLOUDY    31   4  32 CALM      30.33S
ROSWELL        CLEAR     33  13  43 CALM      30.22S
RUIDOSO          N/A     32   3  29 NW9       30.35R WCI  24
SANTA FE       CLOUDY    31  16  54 NW12      30.32S WCI  22
TRUTH OR CONSE CLEAR     33   6  32 NW8       30.35S WCI  26
TUCUMCARI      CLEAR     31  15  52 W12       30.13F WCI  22
$$

USA.gov is the U.S. government's official web portal to all federal, state and local government web resources and services.